Погода в Савве

Россия / Республика Мордовия     54°04′28″N   43°05′16″E
темп.,
°C
ветер,
м/с
пор.,
м/с
влажн.,
%
обл.,
%
осадки,
мм/ч
давл.,
гПа
погр.,
м
13 мая, чт
чт1300:00+13ю239890 0.2 1021143
03:00+11ююв249491 0.2 1021139
06:00+12вюв259263 0.0 1020382
09:00+17в3580100 0.0 1018584
12:00+17вюв3683100 0.1 1017448
15:00+20ююв567533 3.6 1016900
18:00+19юз35780 0.5 1016392
21:00+14ю35920 0.6 101786
14 мая, пт
пт1400:00+13ю339211 0.0 101838
03:00+13ююв229286 0.0 101920
06:00+14юв2488100 0.0 1019102
09:00+19юв35725 0.0 1019457
12:00+23юв455631 0.0 10191181
15:00+24юв5653100 0.0 10171344
18:00+23вюв4770100 0.0 1016297
21:00+19юв41087100 0.4 1015205
15 мая, сб
сб1500:00+17юв41187100 0.0 1014198
03:00+16ююв5138196 0.0 1014252
06:00+16ююв61470100 0.0 1014326
09:00+20ююв71460100 0.1 1014605
12:00+23ю8145163 0.0 10141042
15:00+24ю712545 0.0 10151408
18:00+22ююз5106598 0.0 1014467
21:00+17ююз3581100 0.0 101581
16 мая, вс
вс1600:00+16ююз238960 0.0 101529
03:00+16ююз1188100 0.0 101511
06:00+17ю1188100 1.1 101651
09:00+21ю127287 1.1 1015483
12:00+24ююв1262100 0.0 1015767
15:00+25юз455498 0.0 10151547
18:00+23юз2368100 0.0 1015119
21:00+18в018235 0.0 101512
17 мая, пн
пн1700:00+16св118354 0.0 101612
03:00+16в227972 0.0 101615
06:00+17в36815 0.0 1016153
09:00+23юв35605 0.0 1016416
12:00+25юв34507 0.0 1016486
15:00+28ююв584348 0.0 10152618
18:00+25вюв365744 0.0 1015126
21:00+19юв486649 0.0 1015115